Weather History for Austin, MN

Change the Weather History Date:

Tuesday, August 27, 2013

  Actual Average Record
Temperature  
Mean Temperature 81 °F -  
Max Temperature 89 °F 75 °F 89 °F (2013)
Min Temperature 73 °F 57 °F 50 °F (1996)
Cooling Degree Days 16    
Growing Degree Days 31 (Base 50)    
Moisture  
Dew Point 68 °F    
Average Humidity 66    
Maximum Humidity 89    
Minimum Humidity 49    
Precipitation  
Precipitation 0.00 in - - ()
Sea Level Pressure  
Sea Level Pressure 29.89 in    
Wind  
Wind Speed 8 mph (SW)    
Max Wind Speed 14 mph    
Max Gust Speed 18 mph    
Visibility 10 miles    
Events      
Averages and records for this station are not official NWS values.
T = Trace of Precipitation, MM = Missing Value Source: NWS Daily Summary

Daily Weather History Graph

Daily Weather History Graph

Search for Another Location

Airport:

Trip Planner

Search our weather history database for the weather conditions in past years. The results will help you decide how hot, cold, wet, or windy it might be!

Date:

Astronomy

Aug. 27, 2013 Rise Set
Actual Time 6:30 AM CDT 7:55 PM CDT
Civil Twilight 6:00 AM CDT 8:25 PM CDT
Nautical Twilight 5:23 AM CDT 9:01 PM CDT
Astronomical Twilight 4:45 AM CDT 9:39 PM CDT
Moon 11:34 PM CDT (8/27) 1:42 PM CDT (8/27)
Length of Visible Light 14h 25m
Length of Day
13h 25m
Waning Gibbous, 57% of the Moon is Illuminated
Aug 27
Waning Gibbous
Aug 28
Last Quarter
Sep 5
New
Sep 12
First Quarter
Sep 19
Full

Hourly Weather History & Observations

Time (CDT) Temp. Heat Index Dew Point Humidity Pressure Visibility Wind Dir Wind Speed Gust Speed Precip Events Conditions
12:16 AM 77.0 °F - 68.0 °F 74% 29.94 in 10.0 mi SSW 8.1 mph - N/A   Clear
12:37 AM 78.8 °F - 68.0 °F 69% 29.94 in 10.0 mi South 8.1 mph - N/A   Clear
12:56 AM 75.2 °F - 68.0 °F 78% 29.94 in 10.0 mi SSE 3.5 mph - N/A   Clear
1:16 AM 75.2 °F - 68.0 °F 78% 29.93 in 10.0 mi South 6.9 mph - N/A   Clear
1:36 AM 75.2 °F - 68.0 °F 78% 29.92 in 10.0 mi SSW 9.2 mph - N/A   Clear
1:57 AM 77.0 °F - 68.0 °F 74% 29.91 in 10.0 mi SSW 10.4 mph - N/A   Clear
2:16 AM 77.0 °F - 68.0 °F 74% 29.91 in 10.0 mi SSW 9.2 mph - N/A   Clear
2:36 AM 75.2 °F - 68.0 °F 78% 29.90 in 10.0 mi SSW 8.1 mph - N/A   Clear
2:57 AM 75.2 °F - 68.0 °F 78% 29.90 in 10.0 mi SSW 6.9 mph - N/A   Clear
3:16 AM 75.2 °F - 68.0 °F 78% 29.90 in 10.0 mi SSW 8.1 mph - N/A   Clear
3:36 AM 75.2 °F - 68.0 °F 78% 29.89 in 10.0 mi SSW 8.1 mph - N/A   Clear
3:57 AM 75.2 °F - 66.2 °F 73% 29.89 in 10.0 mi SSW 9.2 mph - N/A   Clear
4:16 AM 75.2 °F - 66.2 °F 73% 29.89 in 10.0 mi SSW 8.1 mph - N/A   Clear
4:36 AM 75.2 °F - 66.2 °F 73% 29.88 in 10.0 mi SSW 8.1 mph - N/A   Clear
4:57 AM 75.2 °F - 66.2 °F 73% 29.88 in 10.0 mi SSW 6.9 mph - N/A   Clear
5:16 AM 75.2 °F - 66.2 °F 73% 29.88 in 10.0 mi SSW 8.1 mph - N/A   Clear
5:36 AM 75.2 °F - 66.2 °F 73% 29.87 in 10.0 mi SSW 8.1 mph - N/A   Clear
5:57 AM 75.2 °F - 66.2 °F 73% 29.88 in 10.0 mi SSW 8.1 mph - N/A   Clear
6:16 AM 75.2 °F - 66.2 °F 73% 29.88 in 10.0 mi SSW 6.9 mph - N/A   Clear
6:36 AM 73.4 °F - 66.2 °F 78% 29.88 in 10.0 mi SSW 5.8 mph - N/A   Clear
6:57 AM 73.4 °F - 66.2 °F 78% 29.89 in 10.0 mi SSW 3.5 mph - N/A   Clear
7:16 AM 73.4 °F - 66.2 °F 78% 29.90 in 10.0 mi Calm Calm - N/A   Clear
7:36 AM 73.4 °F - 66.2 °F 78% 29.89 in 10.0 mi SSW 5.8 mph - N/A   Clear
7:57 AM 75.2 °F - 66.2 °F 73% 29.89 in 10.0 mi SSW 4.6 mph - N/A   Clear
8:16 AM 77.0 °F - 66.2 °F 69% 29.89 in 10.0 mi SSW 6.9 mph - N/A   Clear
8:36 AM 78.8 °F - 66.2 °F 65% 29.89 in 10.0 mi SW 9.2 mph - N/A   Clear
8:57 AM 78.8 °F - 66.2 °F 65% 29.88 in 10.0 mi SW 10.4 mph - N/A   Clear
9:16 AM 80.6 °F 82.7 °F 66.2 °F 61% 29.88 in 10.0 mi SW 11.5 mph - N/A   Clear
9:36 AM 80.6 °F 82.7 °F 66.2 °F 61% 29.88 in 10.0 mi SW 13.8 mph - N/A   Clear
9:57 AM 80.6 °F 82.7 °F 66.2 °F 61% 29.88 in 10.0 mi WSW 12.7 mph - N/A   Clear
10:16 AM 82.4 °F 84.6 °F 66.2 °F 58% 29.88 in 10.0 mi WSW 9.2 mph 17.3 mph N/A   Clear
10:36 AM 82.4 °F 84.6 °F 66.2 °F 58% 29.88 in 10.0 mi WSW 12.7 mph 18.4 mph N/A   Clear
10:57 AM 82.4 °F 84.6 °F 66.2 °F 58% 29.88 in 10.0 mi WSW 11.5 mph - N/A   Clear
11:16 AM 84.2 °F 86.6 °F 66.2 °F 55% 29.88 in 10.0 mi WSW 10.4 mph 17.3 mph N/A   Clear
11:36 AM 84.2 °F 86.6 °F 66.2 °F 55% 29.88 in 10.0 mi SW 12.7 mph - N/A   Clear
11:57 AM 84.2 °F 86.6 °F 66.2 °F 55% 29.88 in 10.0 mi WSW 12.7 mph - N/A   Clear
12:16 PM 84.2 °F 86.6 °F 66.2 °F 55% 29.88 in 10.0 mi WSW 11.5 mph 16.1 mph N/A   Clear
12:36 PM 87.8 °F 91.4 °F 68.0 °F 52% 29.87 in 10.0 mi WSW 10.4 mph 16.1 mph N/A   Clear
12:57 PM 86.0 °F 88.2 °F 66.2 °F 51% 29.86 in 10.0 mi SW 12.7 mph - N/A   Clear
1:16 PM 86.0 °F 88.2 °F 66.2 °F 51% 29.86 in 10.0 mi SW 11.5 mph - N/A   Clear
1:36 PM 87.8 °F 91.4 °F 68.0 °F 52% 29.86 in 10.0 mi SW 9.2 mph - N/A   Clear
1:57 PM 87.8 °F 91.4 °F 68.0 °F 52% 29.86 in 10.0 mi SSW 11.5 mph - N/A   Clear
2:16 PM 87.8 °F 91.4 °F 68.0 °F 52% 29.86 in 10.0 mi SW 12.7 mph 17.3 mph N/A   Clear
2:36 PM 87.8 °F 92.6 °F 69.8 °F 55% 29.86 in 10.0 mi SW 12.7 mph - N/A   Clear
2:57 PM 89.6 °F 93.4 °F 68.0 °F 49% 29.86 in 10.0 mi SW 10.4 mph - N/A   Clear
3:16 PM 89.6 °F 93.4 °F 68.0 °F 49% 29.86 in 10.0 mi West 11.5 mph - N/A   Clear
3:36 PM 89.6 °F 93.4 °F 68.0 °F 49% 29.86 in 10.0 mi WSW 9.2 mph - N/A   Clear
3:57 PM 89.6 °F 94.7 °F 69.8 °F 52% 29.86 in 10.0 mi West 10.4 mph - N/A   Clear
4:16 PM 89.6 °F 93.4 °F 68.0 °F 49% 29.86 in 10.0 mi West 13.8 mph 17.3 mph N/A   Clear
4:36 PM 89.6 °F 94.7 °F 69.8 °F 52% 29.86 in 10.0 mi WSW 9.2 mph - N/A   Clear
4:56 PM 89.6 °F 94.7 °F 69.8 °F 52% 29.86 in 10.0 mi West 11.5 mph - N/A   Clear
5:17 PM 89.6 °F 93.4 °F 68.0 °F 49% 29.86 in 10.0 mi WSW 13.8 mph - N/A   Clear
5:36 PM 89.6 °F 94.7 °F 69.8 °F 52% 29.86 in 10.0 mi West 11.5 mph 18.4 mph N/A   Clear
5:56 PM 89.6 °F 94.7 °F 69.8 °F 52% 29.86 in 10.0 mi West 11.5 mph - N/A   Clear
6:16 PM 87.8 °F 92.6 °F 69.8 °F 55% 29.86 in 10.0 mi West 9.2 mph - N/A   Clear
6:36 PM 87.8 °F 92.6 °F 69.8 °F 55% 29.87 in 10.0 mi West 8.1 mph - N/A   Clear
6:57 PM 87.8 °F 93.8 °F 71.6 °F 58% 29.87 in 10.0 mi WNW 8.1 mph - N/A   Clear
7:16 PM 86.0 °F 91.8 °F 71.6 °F 62% 29.87 in 10.0 mi WNW 8.1 mph - N/A   Clear
7:36 PM 84.2 °F 89.6 °F 71.6 °F 66% 29.88 in 10.0 mi NW 5.8 mph - N/A   Clear
7:57 PM 84.2 °F 89.6 °F 71.6 °F 66% 29.88 in 10.0 mi WNW 4.6 mph - N/A   Clear
8:16 PM 82.4 °F 87.2 °F 71.6 °F 70% 29.88 in 10.0 mi NW 4.6 mph - N/A   Clear
8:36 PM 80.6 °F 84.6 °F 71.6 °F 74% 29.89 in 10.0 mi Calm Calm - N/A   Clear
8:56 PM 82.4 °F 87.2 °F 71.6 °F 70% 29.89 in 10.0 mi Calm Calm - N/A   Clear
9:16 PM 80.6 °F 84.6 °F 71.6 °F 74% 29.90 in 10.0 mi Calm Calm - N/A   Clear
9:36 PM 80.6 °F 84.6 °F 71.6 °F 74% 29.90 in 10.0 mi Calm Calm - N/A   Clear
9:57 PM 78.8 °F - 71.6 °F 78% 29.90 in 10.0 mi SW 3.5 mph - N/A   Clear
10:16 PM 77.0 °F - 71.6 °F 83% 29.91 in 10.0 mi Calm Calm - N/A   Clear
10:36 PM 78.8 °F - 71.6 °F 78% 29.92 in 10.0 mi Calm Calm - N/A   Clear
10:57 PM 77.0 °F - 71.6 °F 83% 29.92 in 10.0 mi Calm Calm - N/A   Clear
11:16 PM 77.0 °F - 71.6 °F 83% 29.92 in 10.0 mi Calm Calm - N/A   Clear
11:36 PM 75.2 °F - 71.6 °F 89% 29.92 in 10.0 mi Calm Calm - N/A   Scattered Clouds